Springfield, IL

6:59 PM CST on December 14, 2019 (GMT -0600)
Capital

Weather History for KSPI - October, 2019

Change the Weather History Date:

Thursday, October 3, 2019

  Actual Average Record
Temperature  
Mean Temperature 63 °F 60 °F  
Max Temperature 75 °F 72 °F 93 °F (1954)
Min Temperature 50 °F 47 °F 30 °F (2004)
Degree Days  
Heating Degree Days 2 7  
Month to date heating degree days 2 20  
Since 1 July heating degree days 3 101  
Cooling Degree Days 0 1  
Month to date cooling degree days 32 5  
Year to date cooling degree days 1309 1104  
Growing Degree Days 14 (Base 50)    
Moisture  
Dew Point 58 °F    
Average Humidity 78    
Maximum Humidity 100    
Minimum Humidity 55    
Precipitation  
Precipitation 0.06 in 0.10 in 3.24 in (1973)
Month to date precipitation 0.06 0.30  
Year to date precipitation 40.61 28.85  
Snow  
Snow 0.00 in 0.00 in 0.00 in ()
Month to date snowfall 0.0 0.0  
Since 1 July snowfall 0.0 0.0  
Since 1 September snowfall 0.0 0.0  
Snow Depth 0.00 in    
Sea Level Pressure  
Sea Level Pressure 30.09 in    
Wind  
Wind Speed 10 mph (NW)    
Max Wind Speed 21 mph    
Max Gust Speed 28 mph    
Visibility 10 miles    
Events Rain    
T = Trace of Precipitation, MM = Missing Value Source: NWS Daily Summary

Daily Weather History Graph

Daily Weather History Graph

Search for Another Location

Airport or City:

Astronomy

Oct. 03, 2019 Rise Set
Actual Time 6:56 AM CDT 6:38 PM CDT
Civil Twilight 6:29 AM CDT 7:05 PM CDT
Nautical Twilight 5:58 AM CDT 7:36 PM CDT
Astronomical Twilight 5:26 AM CDT 8:07 PM CDT
Moon 12:27 PM CDT (10/3) 10:17 PM CDT (10/3)
Length of Visible Light 12h 35m
Length of Day
11h 41m
Waxing Crescent, 30% of the Moon is Illuminated
Oct 3
Waxing Crescent
Oct 5
First Quarter
Oct 13
Full
Oct 21
Last Quarter
Oct 27
New

Hourly Weather History & Observations

Time (CDT) Temp. Dew Point Humidity Pressure Visibility Wind Dir Wind Speed Gust Speed Precip Events Conditions
12:52 AM 75.0 °F 69.1 °F 82% 29.88 in 10.0 mi West 3.5 mph - N/A   Scattered Clouds
1:52 AM 73.9 °F 69.1 °F 85% 29.90 in 10.0 mi WSW 5.8 mph - N/A   Overcast
2:52 AM 73.9 °F 70.0 °F 87% 29.92 in 10.0 mi WNW 9.2 mph - N/A   Overcast
3:52 AM 72.0 °F 70.0 °F 93% 29.93 in 3.0 mi West 6.9 mph - 0.02 in Rain Heavy Rain
4:52 AM 71.1 °F 70.0 °F 96% 29.94 in 10.0 mi West 6.9 mph - 0.04 in   Partly Cloudy
5:11 AM 72.0 °F 70.0 °F 93% 29.97 in 10.0 mi WNW 10.4 mph - N/A   Mostly Cloudy
5:43 AM 71.1 °F 70.0 °F 96% 29.99 in 10.0 mi WNW 20.7 mph 27.6 mph N/A   Overcast
5:45 AM 71.1 °F 69.1 °F 93% 29.99 in 10.0 mi WNW 18.4 mph 27.6 mph N/A   Overcast
5:52 AM 70.0 °F 68.0 °F 93% 29.98 in 10.0 mi NW 12.7 mph 27.6 mph N/A   Overcast
5:59 AM 70.0 °F 68.0 °F 93% 29.99 in 10.0 mi NW 10.4 mph 20.7 mph N/A   Overcast
6:20 AM 68.0 °F 66.9 °F 96% 30.01 in 10.0 mi NW 11.5 mph - N/A   Overcast
6:30 AM 68.0 °F 66.0 °F 93% 30.01 in 10.0 mi NW 11.5 mph - N/A   Overcast
6:52 AM 66.0 °F 64.9 °F 96% 30.01 in 10.0 mi NW 12.7 mph 21.9 mph N/A   Overcast
7:52 AM 63.0 °F 63.0 °F 100% 30.05 in 10.0 mi WNW 10.4 mph 19.6 mph N/A   Overcast
8:52 AM 60.1 °F 57.9 °F 93% 30.09 in 10.0 mi NW 12.7 mph 24.2 mph N/A   Overcast
9:52 AM 59.0 °F 55.9 °F 90% 30.12 in 10.0 mi WNW 10.4 mph - N/A   Overcast
10:52 AM 59.0 °F 55.0 °F 87% 30.14 in 10.0 mi NW 16.1 mph 21.9 mph N/A   Overcast
11:18 AM 59.0 °F 54.0 °F 83% 30.14 in 10.0 mi NNW 19.6 mph 27.6 mph N/A   Overcast
11:52 AM 59.0 °F 54.0 °F 83% 30.16 in 10.0 mi NW 9.2 mph 19.6 mph N/A   Overcast
12:20 PM 61.0 °F 53.1 °F 75% 30.16 in 10.0 mi NW 13.8 mph 20.7 mph N/A   Overcast
12:52 PM 63.0 °F 52.0 °F 67% 30.15 in 10.0 mi NW 11.5 mph - N/A   Mostly Cloudy
1:00 PM 64.0 °F 52.0 °F 65% 30.16 in 10.0 mi NNW 12.7 mph - N/A   Scattered Clouds
1:52 PM 66.0 °F 52.0 °F 60% 30.14 in 10.0 mi NNW 11.5 mph - N/A   Clear
2:52 PM 68.0 °F 51.1 °F 55% 30.15 in 10.0 mi NW 15.0 mph - N/A   Clear
3:52 PM 63.0 °F 50.0 °F 63% 30.17 in 10.0 mi NW 11.5 mph - N/A   Clear
4:52 PM 61.0 °F 48.9 °F 64% 30.18 in 10.0 mi NW 10.4 mph - N/A   Clear
5:52 PM 60.1 °F 48.9 °F 67% 30.20 in 10.0 mi NNW 9.2 mph - N/A   Clear
6:52 PM 57.9 °F 48.0 °F 70% 30.22 in 10.0 mi NNW 9.2 mph - N/A   Clear
7:52 PM 55.0 °F 48.9 °F 80% 30.25 in 10.0 mi NW 4.6 mph - N/A   Clear
8:52 PM 54.0 °F 48.9 °F 83% 30.25 in 10.0 mi NW 4.6 mph - N/A   Clear
9:52 PM 54.0 °F 48.9 °F 83% 30.27 in 10.0 mi NNW 4.6 mph - N/A   Clear
10:52 PM 53.1 °F 48.0 °F 83% 30.30 in 10.0 mi North 9.2 mph - N/A   Clear
11:52 PM 51.1 °F 46.0 °F 83% 30.30 in 10.0 mi North 8.1 mph - N/A   Clear